| time (UTC) | temp C | wind direction | speed KPH | gust KPH | rain 1hr cm | rain 24hr cm | rain mn cm | humidity % | barometer mb |
| 20260831112204 | 22 | 268 | 8.0 | 0.0 | 0.00 | 0.00 | 0.33 | 57 | 1016.5 |
| 20260831111727 | 22 | 213 | 8.0 | 0.0 | 0.00 | 0.00 | 0.33 | 57 | 1016.5 |
| 20260831111212 | 22 | 147 | 6.4 | 0.0 | 0.00 | 0.00 | 0.33 | 60 | 1016.5 |
| 20260831110711 | 22 | 360 | 11.3 | 0.0 | 0.00 | 0.00 | 0.33 | 58 | 1016.5 |
| 20260831110221 | 22 | 221 | 11.3 | 0.0 | 0.00 | 0.00 | 0.33 | 59 | 1016.5 |
| 20260831105704 | 22 | 235 | 9.7 | 0.0 | 0.00 | 0.00 | 0.33 | 63 | 1015.9 |
| 20260831105226 | 21 | 123 | 9.7 | 0.0 | 0.00 | 0.00 | 0.33 | 63 | 1015.9 |
| 20260831104712 | 21 | 292 | 8.0 | 0.0 | 0.00 | 0.00 | 0.33 | 64 | 1015.9 |
| 20260831104215 | 21 | 360 | 8.0 | 0.0 | 0.00 | 0.00 | 0.33 | 64 | 1016.1 |
| 20260831103706 | 21 | 231 | 8.0 | 0.0 | 0.00 | 0.00 | 0.33 | 64 | 1016.1 |
| 20260831103206 | 20 | 49 | 9.7 | 0.0 | 0.00 | 0.00 | 0.33 | 65 | 1016.1 |
| 20260831102722 | 21 | 360 | 9.7 | 0.0 | 0.00 | 0.00 | 0.33 | 64 | 1016.1 |
| 20260831102213 | 21 | 279 | 4.8 | 0.0 | 0.00 | 0.00 | 0.33 | 66 | 1016.1 |
| 20260831101716 | 20 | 257 | 4.8 | 0.0 | 0.00 | 0.00 | 0.33 | 67 | 1016.1 |
| 20260831101219 | 20 | 355 | 4.8 | 0.0 | 0.00 | 0.00 | 0.33 | 67 | 1016.8 |
| 20260831100706 | 21 | 307 | 3.2 | 0.0 | 0.00 | 0.00 | 0.33 | 64 | 1016.8 |
| 20260831100214 | 21 | 44 | 1.6 | 0.0 | 0.00 | 0.00 | 0.33 | 66 | 1016.8 |
| 20260831095719 | 21 | 177 | 1.6 | 0.0 | 0.00 | 0.00 | 0.33 | 68 | 1016.2 |
| 20260831095216 | 20 | 160 | 1.6 | 0.0 | 0.00 | 0.00 | 0.33 | 68 | 1016.2 |
| 20260831094713 | 20 | 213 | 0.0 | 0.0 | 0.00 | 0.00 | 0.33 | 69 | 1016.2 |
| 20260831094226 | 20 | 360 | 0.0 | 0.0 | 0.00 | 0.00 | 0.33 | 72 | 1016.2 |
| 20260831093712 | 19 | 153 | 1.6 | 0.0 | 0.00 | 0.00 | 0.33 | 69 | 1016.2 |
| 20260831093216 | 20 | 182 | 1.6 | 0.0 | 0.00 | 0.00 | 0.33 | 70 | 1016.2 |
| 20260831092722 | 20 | 238 | 1.6 | 0.0 | 0.00 | 0.00 | 0.33 | 69 | 1016.1 |
| 20260831092222 | 20 | 182 | 1.6 | 0.0 | 0.00 | 0.00 | 0.33 | 68 | 1016.1 |
| 20260831091721 | 20 | 182 | 3.2 | 0.0 | 0.00 | 0.00 | 0.33 | 69 | 1016.1 |
| 20260831091207 | 19 | 360 | 1.6 | 0.0 | 0.00 | 0.00 | 0.33 | 70 | 1016.2 |
| 20260831090710 | 19 | 195 | 1.6 | 0.0 | 0.00 | 0.00 | 0.33 | 71 | 1016.2 |
| 20260831090217 | 19 | 191 | 1.6 | 0.0 | 0.00 | 0.00 | 0.33 | 71 | 1016.2 |
| 20260831085722 | 19 | 360 | 1.6 | 0.0 | 0.00 | 0.00 | 0.33 | 70 | 1016.0 |
| 20260831085208 | 20 | 236 | 3.2 | 0.0 | 0.00 | 0.00 | 0.33 | 70 | 1016.0 |
| 20260831084711 | 20 | 360 | 3.2 | 0.0 | 0.00 | 0.00 | 0.33 | 71 | 1016.0 |
| 20260831084213 | 19 | 292 | 4.8 | 0.0 | 0.00 | 0.00 | 0.33 | 73 | 1016.1 |
| 20260831083724 | 18 | 360 | 6.4 | 0.0 | 0.00 | 0.00 | 0.33 | 73 | 1016.1 |
| 20260831083224 | 18 | 241 | 6.4 | 0.0 | 0.00 | 0.00 | 0.33 | 73 | 1016.1 |
| 20260831082726 | 19 | 244 | 3.2 | 0.0 | 0.00 | 0.00 | 0.33 | 75 | 1016.0 |
| 20260831082212 | 18 | 360 | 4.8 | 0.0 | 0.00 | 0.00 | 0.33 | 76 | 1016.0 |
| 20260831081712 | 18 | 214 | 6.4 | 0.0 | 0.00 | 0.00 | 0.33 | 76 | 1016.0 |
| 20260831081212 | 18 | 0.0 | 0.0 | 0.00 | 0.00 | 0.33 | 74 | 1015.9 | |
| 20260831080711 | 19 | 198 | 4.8 | 0.0 | 0.00 | 0.00 | 0.33 | 76 | 1015.9 |
| 20260831080214 | 18 | 360 | 8.0 | 0.0 | 0.00 | 0.00 | 0.33 | 78 | 1015.9 |
| 20260831075719 | 18 | 275 | 8.0 | 0.0 | 0.00 | 0.00 | 0.33 | 77 | 1015.6 |
| 20260831075204 | 18 | 360 | 6.4 | 0.0 | 0.00 | 0.00 | 0.33 | 78 | 1015.6 |
| 20260831074719 | 18 | 230 | 4.8 | 0.0 | 0.00 | 0.00 | 0.33 | 78 | 1015.6 |
| 20260831074220 | 18 | 281 | 3.2 | 0.0 | 0.00 | 0.00 | 0.33 | 79 | 1015.7 |
| 20260831073719 | 18 | 360 | 3.2 | 0.0 | 0.00 | 0.00 | 0.33 | 79 | 1015.7 |
| 20260831073210 | 17 | 238 | 3.2 | 0.0 | 0.00 | 0.00 | 0.33 | 81 | 1015.7 |
| 20260831072714 | 17 | 149 | 1.6 | 0.0 | 0.00 | 0.00 | 0.33 | 80 | 1015.7 |
| 20260831072219 | 17 | 297 | 3.2 | 0.0 | 0.00 | 0.00 | 0.33 | 81 | 1015.7 |
| 20260831071721 | 17 | 239 | 4.8 | 0.0 | 0.00 | 0.00 | 0.33 | 80 | 1015.7 |
| 20260831071210 | 17 | 227 | 4.8 | 0.0 | 0.00 | 0.00 | 0.33 | 80 | 1015.4 |
| 20260831070715 | 17 | 360 | 1.6 | 0.0 | 0.00 | 0.00 | 0.33 | 81 | 1015.4 |
| 20260831070221 | 17 | 209 | 1.6 | 0.0 | 0.00 | 0.00 | 0.33 | 82 | 1015.4 |
| 20260831065723 | 17 | 221 | 1.6 | 0.0 | 0.00 | 0.00 | 0.33 | 82 | 1015.2 |
| 20260831065212 | 17 | 276 | 1.6 | 0.0 | 0.00 | 0.00 | 0.33 | 83 | 1015.2 |
| 20260831064715 | 16 | 257 | 1.6 | 0.0 | 0.00 | 0.00 | 0.33 | 83 | 1015.2 |
| 20260831064222 | 16 | 170 | 1.6 | 0.0 | 0.00 | 0.00 | 0.33 | 83 | 1015.0 |
| 20260831063711 | 16 | 209 | 3.2 | 0.0 | 0.00 | 0.00 | 0.33 | 83 | 1015.0 |
| 20260831063212 | 16 | 234 | 1.6 | 0.0 | 0.00 | 0.00 | 0.33 | 84 | 1015.0 |
| 20260831062714 | 16 | 271 | 1.6 | 0.0 | 0.00 | 0.00 | 0.33 | 84 | 1015.1 |
| 20260831062219 | 16 | 171 | 1.6 | 0.0 | 0.00 | 0.00 | 0.33 | 85 | 1015.1 |
| 20260831061718 | 16 | 276 | 1.6 | 0.0 | 0.00 | 0.00 | 0.33 | 85 | 1015.1 |
| 20260831061221 | 16 | 196 | 1.6 | 0.0 | 0.00 | 0.00 | 0.33 | 85 | 1014.8 |
| 20260831060709 | 16 | 294 | 1.6 | 0.0 | 0.00 | 0.00 | 0.33 | 86 | 1014.8 |
| 20260831060215 | 16 | 167 | 0.0 | 0.0 | 0.00 | 0.00 | 0.33 | 86 | 1014.8 |
| 20260831055717 | 16 | 228 | 0.0 | 0.0 | 0.00 | 0.00 | 0.33 | 86 | 1014.8 |
| 20260831055222 | 16 | 175 | 0.0 | 0.0 | 0.00 | 0.00 | 0.33 | 86 | 1014.8 |
| 20260831054711 | 16 | 178 | 0.0 | 0.0 | 0.00 | 0.00 | 0.33 | 86 | 1014.8 |
| 20260831054210 | 16 | 183 | 0.0 | 0.0 | 0.00 | 0.00 | 0.33 | 86 | 1014.9 |
| 20260831053713 | 16 | 173 | 0.0 | 0.0 | 0.00 | 0.00 | 0.33 | 86 | 1014.9 |
| 20260831053204 | 16 | 159 | 0.0 | 0.0 | 0.00 | 0.00 | 0.33 | 86 | 1014.9 |
| 20260831052718 | 15 | 360 | 0.0 | 0.0 | 0.00 | 0.00 | 0.33 | 86 | 1015.0 |
| 20260831052211 | 15 | 188 | 0.0 | 0.0 | 0.00 | 0.00 | 0.33 | 86 | 1015.0 |
| 20260831051705 | 15 | 154 | 0.0 | 0.0 | 0.00 | 0.00 | 0.33 | 1015.0 | |
| 20260831051212 | 15 | 0.0 | 0.0 | 0.00 | 0.00 | 0.33 | 1014.8 | ||
| 20260831050720 | 15 | 0.0 | 0.0 | 0.00 | 0.00 | 0.33 | 1014.8 | ||
| 20260831050210 | 15 | 194 | 1.6 | 0.0 | 0.00 | 0.00 | 0.33 | 1014.8 | |
| 20260831045722 | 15 | 192 | 1.6 | 0.0 | 0.00 | 0.00 | 0.33 | 1014.4 | |
| 20260831045211 | -17 | 0.0 | 0.0 | 0.00 | 0.00 | 0.33 | 1014.4 | ||
| 20260831044718 | -17 | 0.0 | 0.0 | 0.00 | 0.00 | 0.33 | 1014.4 | ||
| 20260831044223 | -17 | 0.0 | 0.0 | 0.00 | 0.00 | 0.33 | 1014.4 | ||
| 20260831043725 | -17 | 0.0 | 0.0 | 0.00 | 0.00 | 0.33 | 1014.4 | ||
| 20260831043208 | -17 | 0.0 | 0.0 | 0.00 | 0.00 | 0.33 | 1014.4 | ||
| 20260831042724 | -17 | 0.0 | 0.0 | 0.00 | 0.00 | 0.33 | 1014.3 | ||
| 20260831042215 | -17 | 0.0 | 0.0 | 0.00 | 0.00 | 0.33 | 1014.3 | ||
| 20260831041719 | -17 | 0.0 | 0.0 | 0.00 | 0.00 | 0.33 | 1014.3 | ||
| 20260831041210 | 15 | 0.0 | 0.0 | 0.00 | 0.00 | 0.33 | 84 | 1014.3 | |
| 20260831040725 | 15 | 0.0 | 0.0 | 0.00 | 0.00 | 0.33 | 84 | 1014.3 | |
| 20260831040212 | 15 | 197 | 1.6 | 0.0 | 0.00 | 0.00 | 0.33 | 84 | 1014.3 |
| 20260831035719 | 15 | 120 | 1.6 | 0.0 | 0.00 | 0.00 | 0.33 | 84 | 1014.2 |
| 20260831035215 | 15 | 164 | 1.6 | 0.0 | 0.00 | 0.00 | 0.33 | 84 | 1014.2 |
| 20260831034723 | 15 | 173 | 1.6 | 0.0 | 0.00 | 0.00 | 0.33 | 84 | 1014.2 |
| 20260831034208 | 15 | 191 | 1.6 | 0.0 | 0.00 | 0.00 | 0.33 | 84 | 1014.2 |
| 20260831033708 | 15 | 186 | 1.6 | 0.0 | 0.00 | 0.00 | 0.33 | 84 | 1014.2 |
| 20260831033215 | 15 | 162 | 0.0 | 0.0 | 0.00 | 0.00 | 0.33 | 84 | 1014.2 |
| 20260831032718 | 15 | 157 | 0.0 | 0.0 | 0.00 | 0.00 | 0.33 | 84 | 1015.0 |
| 20260831032223 | 16 | 168 | 1.6 | 0.0 | 0.00 | 0.00 | 0.33 | 84 | 1015.0 |
| 20260831031712 | 16 | 173 | 0.0 | 0.0 | 0.00 | 0.00 | 0.33 | 84 | 1015.0 |
| 20260831031214 | 16 | 160 | 0.0 | 0.0 | 0.00 | 0.00 | 0.33 | 84 | 1015.2 |
| 20260831030720 | 16 | 160 | 0.0 | 0.0 | 0.00 | 0.00 | 0.33 | 83 | 1015.2 |
| 20260831030222 | 16 | 160 | 0.0 | 0.0 | 0.00 | 0.00 | 0.33 | 83 | 1015.2 |
| 20260831025714 | 16 | 173 | 0.0 | 0.0 | 0.00 | 0.00 | 0.33 | 83 | 1014.9 |
| 20260831025220 | 16 | 199 | 1.6 | 0.0 | 0.00 | 0.00 | 0.33 | 83 | 1014.9 |
| 20260831024727 | 16 | 260 | 3.2 | 0.0 | 0.00 | 0.00 | 0.30 | 83 | 1014.9 |
| 20260831024215 | 16 | 252 | 6.4 | 0.0 | 0.00 | 0.00 | 0.30 | 82 | 1015.5 |
| 20260831023714 | 16 | 276 | 11.3 | 0.0 | 0.00 | 0.00 | 0.28 | 82 | 1015.5 |
| 20260831023218 | 16 | 284 | 17.7 | 0.0 | 0.00 | 0.00 | 0.25 | 82 | 1015.5 |
| 20260831022706 | 16 | 252 | 20.9 | 0.0 | 0.00 | 0.00 | 0.23 | 81 | 1015.7 |
| 20260831022210 | 16 | 360 | 22.5 | 0.0 | 0.00 | 0.00 | 0.15 | 81 | 1015.7 |
| 20260831021723 | 17 | 276 | 22.5 | 0.0 | 0.00 | 0.00 | 0.05 | 80 | 1015.7 |
| 20260831021211 | 17 | 279 | 22.5 | 0.0 | 0.00 | 0.00 | 0.00 | 79 | 1014.9 |
| 20260831020709 | 17 | 302 | 20.9 | 0.0 | 0.00 | 0.00 | 0.00 | 80 | 1014.9 |
| 20260831020223 | 16 | 299 | 14.5 | 0.0 | 0.00 | 0.00 | 0.00 | 81 | 1014.9 |
| 20260831015712 | 16 | 360 | 4.8 | 0.0 | 0.00 | 0.00 | 0.00 | 81 | 1012.6 |
| 20260831015206 | 16 | 151 | 0.0 | 0.0 | 0.00 | 0.00 | 0.00 | 80 | 1012.6 |
| 20260831014713 | 16 | 360 | 0.0 | 0.0 | 0.00 | 0.00 | 0.00 | 80 | 1012.6 |
| 20260831014213 | 16 | 203 | 0.0 | 0.0 | 0.00 | 0.00 | 0.00 | 79 | 1012.2 |
| 20260831013714 | 16 | 209 | 0.0 | 0.0 | 0.00 | 0.00 | 0.00 | 79 | 1012.2 |
| 20260831013204 | 16 | 210 | 0.0 | 0.0 | 0.00 | 0.00 | 0.00 | 79 | 1012.2 |
| 20260831012715 | 16 | 210 | 0.0 | 0.0 | 0.00 | 0.00 | 0.00 | 79 | 1012.6 |
| 20260831012221 | 16 | 210 | 0.0 | 0.0 | 0.00 | 0.00 | 0.00 | 79 | 1012.6 |
| 20260831011709 | 16 | 210 | 0.0 | 0.0 | 0.00 | 0.00 | 0.00 | 79 | 1012.6 |
| 20260831011212 | 16 | 210 | 0.0 | 0.0 | 0.00 | 0.00 | 0.00 | 80 | 1012.7 |
| 20260831010715 | 16 | 210 | 0.0 | 0.0 | 0.00 | 0.00 | 0.00 | 80 | 1012.7 |
| 20260831010220 | 16 | 210 | 0.0 | 0.0 | 0.00 | 0.00 | 0.00 | 80 | 1012.7 |
| 20260831005711 | 16 | 211 | 0.0 | 0.0 | 0.00 | 0.00 | 0.00 | 79 | 1012.8 |
| 20260831005214 | 16 | 213 | 0.0 | 0.0 | 0.00 | 0.00 | 0.00 | 79 | 1012.8 |
| 20260831004720 | 16 | 213 | 0.0 | 0.0 | 0.00 | 0.00 | 0.00 | 79 | 1012.8 |
| 20260831004221 | 16 | 230 | 0.0 | 0.0 | 0.00 | 0.00 | 0.00 | 78 | 1013.0 |
| 20260831003720 | 16 | 231 | 0.0 | 0.0 | 0.00 | 0.00 | 0.00 | 78 | 1013.0 |
| 20260831003208 | 16 | 232 | 0.0 | 0.0 | 0.00 | 0.00 | 0.00 | 77 | 1013.0 |
| 20260831002715 | 16 | 232 | 0.0 | 0.0 | 0.00 | 0.00 | 0.00 | 77 | 1013.2 |
| 20260831002223 | 16 | 232 | 0.0 | 0.0 | 0.00 | 0.00 | 0.00 | 77 | 1013.2 |
| 20260831001722 | 16 | 232 | 0.0 | 0.0 | 0.00 | 0.00 | 0.00 | 77 | 1013.2 |
| 20260831001221 | 17 | 232 | 0.0 | 0.0 | 0.00 | 0.00 | 0.00 | 76 | 1013.2 |
| 20260831000726 | 17 | 238 | 0.0 | 0.0 | 0.00 | 0.00 | 0.00 | 76 | 1013.2 |
| 20260831000208 | 17 | 234 | 0.0 | 0.0 | 0.00 | 0.00 | 0.00 | 76 | 1013.2 |
| 20260830235720 | 17 | 232 | 0.0 | 0.0 | 0.00 | 0.00 | 0.00 | 76 | 1013.2 |
| 20260830235225 | 17 | 232 | 0.0 | 0.0 | 0.00 | 0.00 | 0.00 | 76 | 1013.2 |
| 20260830234714 | 17 | 232 | 0.0 | 0.0 | 0.00 | 0.00 | 0.00 | 75 | 1013.2 |
| 20260830234222 | 17 | 232 | 0.0 | 0.0 | 0.00 | 0.00 | 0.00 | 75 | 1013.3 |
| 20260830233705 | 17 | 232 | 0.0 | 0.0 | 0.00 | 0.00 | 0.00 | 74 | 1013.3 |
| 20260830233224 | 17 | 232 | 0.0 | 0.0 | 0.00 | 0.00 | 0.00 | 74 | 1013.3 |
| 20260830232710 | 17 | 232 | 0.0 | 0.0 | 0.00 | 0.00 | 0.00 | 74 | 1013.3 |
| 20260830232212 | 17 | 232 | 0.0 | 0.0 | 0.00 | 0.00 | 0.00 | 74 | 1013.3 |
| 20260830231721 | 17 | 232 | 0.0 | 0.0 | 0.00 | 0.00 | 0.00 | 74 | 1013.3 |
| 20260830231220 | 17 | 232 | 0.0 | 0.0 | 0.00 | 0.00 | 0.00 | 74 | 1013.6 |
| 20260830230709 | 17 | 232 | 0.0 | 0.0 | 0.00 | 0.00 | 0.00 | 74 | 1013.6 |
| 20260830230215 | 17 | 232 | 0.0 | 0.0 | 0.00 | 0.00 | 0.00 | 74 | 1013.6 |
| 20260830225716 | 17 | 232 | 0.0 | 0.0 | 0.00 | 0.00 | 0.00 | 74 | 1013.3 |
| 20260830225219 | 17 | 232 | 0.0 | 0.0 | 0.00 | 0.00 | 0.00 | 74 | 1013.3 |
| 20260830224716 | 18 | 232 | 0.0 | 0.0 | 0.00 | 0.00 | 0.00 | 74 | 1013.3 |
| 20260830224224 | 18 | 232 | 0.0 | 0.0 | 0.00 | 0.00 | 0.00 | 74 | 1013.6 |
| 20260830223726 | 18 | 232 | 0.0 | 0.0 | 0.00 | 0.00 | 0.00 | 74 | 1013.6 |
| 20260830223223 | 18 | 232 | 0.0 | 0.0 | 0.00 | 0.00 | 0.00 | 74 | 1013.6 |
| 20260830222712 | 18 | 232 | 0.0 | 0.0 | 0.00 | 0.00 | 0.00 | 74 | 1013.6 |
| 20260830222218 | 18 | 232 | 0.0 | 0.0 | 0.00 | 0.00 | 0.00 | 74 | 1013.6 |
| 20260830221724 | 18 | 232 | 0.0 | 0.0 | 0.00 | 0.00 | 0.00 | 74 | 1013.6 |
| 20260830221214 | 18 | 232 | 0.0 | 0.0 | 0.00 | 0.00 | 0.00 | 74 | 1013.9 |
| 20260830220724 | 18 | 232 | 0.0 | 0.0 | 0.00 | 0.00 | 0.00 | 73 | 1013.9 |
| 20260830220210 | 18 | 232 | 0.0 | 0.0 | 0.00 | 0.00 | 0.00 | 73 | 1013.9 |
| 20260830215712 | 18 | 232 | 0.0 | 0.0 | 0.00 | 0.00 | 0.00 | 73 | 1014.0 |
| 20260830215220 | 18 | 232 | 0.0 | 0.0 | 0.00 | 0.00 | 0.00 | 73 | 1014.0 |
| 20260830214722 | 18 | 232 | 0.0 | 0.0 | 0.00 | 0.00 | 0.00 | 72 | 1014.0 |
| 20260830214208 | 18 | 232 | 0.0 | 0.0 | 0.00 | 0.00 | 0.00 | 72 | 1014.0 |
| 20260830213718 | 18 | 232 | 0.0 | 0.0 | 0.00 | 0.00 | 0.00 | 72 | 1014.0 |
| 20260830213216 | 18 | 232 | 0.0 | 0.0 | 0.00 | 0.00 | 0.00 | 72 | 1014.0 |
| 20260830212724 | 18 | 232 | 0.0 | 0.0 | 0.00 | 0.00 | 0.00 | 72 | 1014.0 |
| 20260830212208 | 18 | 232 | 0.0 | 0.0 | 0.00 | 0.00 | 0.00 | 72 | 1014.0 |
| 20260830211714 | 18 | 232 | 0.0 | 0.0 | 0.00 | 0.00 | 0.00 | 72 | 1014.0 |
| 20260830211217 | 18 | 235 | 0.0 | 0.0 | 0.00 | 0.00 | 0.00 | 71 | 1014.1 |
| 20260830210719 | 18 | 234 | 0.0 | 0.0 | 0.00 | 0.00 | 0.00 | 71 | 1014.1 |
| 20260830210225 | 18 | 235 | 0.0 | 0.0 | 0.00 | 0.00 | 0.00 | 71 | 1014.1 |
| 20260830205711 | 18 | 235 | 0.0 | 0.0 | 0.00 | 0.00 | 0.00 | 71 | 1014.2 |
| 20260830205217 | 18 | 234 | 0.0 | 0.0 | 0.00 | 0.00 | 0.00 | 70 | 1014.2 |
| 20260830204725 | 18 | 234 | 0.0 | 0.0 | 0.00 | 0.00 | 0.00 | 70 | 1014.2 |
| 20260830204227 | 18 | 235 | 0.0 | 0.0 | 0.00 | 0.00 | 0.00 | 71 | 1014.2 |
| 20260830203710 | 18 | 235 | 0.0 | 0.0 | 0.00 | 0.00 | 0.00 | 70 | 1014.2 |
| 20260830203212 | 18 | 235 | 0.0 | 0.0 | 0.00 | 0.00 | 0.00 | 69 | 1014.2 |
| 20260830202719 | 18 | 236 | 0.0 | 0.0 | 0.00 | 0.00 | 0.00 | 70 | 1014.2 |
| 20260830202217 | 18 | 235 | 0.0 | 0.0 | 0.00 | 0.00 | 0.00 | 70 | 1014.2 |
| 20260830201720 | 19 | 235 | 0.0 | 0.0 | 0.00 | 0.00 | 0.00 | 70 | 1014.2 |
| 20260830201211 | 19 | 360 | 0.0 | 0.0 | 0.00 | 0.00 | 0.00 | 69 | 1014.5 |
| 20260830200723 | 19 | 234 | 0.0 | 0.0 | 0.00 | 0.00 | 0.00 | 69 | 1014.5 |
| 20260830200224 | 19 | 234 | 0.0 | 0.0 | 0.00 | 0.00 | 0.00 | 69 | 1014.5 |
| 20260830195721 | 19 | 360 | 0.0 | 0.0 | 0.00 | 0.00 | 0.00 | 69 | 1014.4 |
| 20260830195212 | 19 | 190 | 0.0 | 0.0 | 0.00 | 0.00 | 0.00 | 68 | 1014.4 |
| 20260830194722 | 19 | 190 | 0.0 | 0.0 | 0.00 | 0.00 | 0.00 | 68 | 1014.4 |
| 20260830194210 | 20 | 223 | 0.0 | 0.0 | 0.00 | 0.00 | 0.00 | 67 | 1014.3 |
| 20260830193719 | 20 | 223 | 0.0 | 0.0 | 0.00 | 0.00 | 0.00 | 67 | 1014.3 |
| 20260830193211 | 20 | 232 | 0.0 | 0.0 | 0.00 | 0.00 | 0.00 | 67 | 1014.3 |
| 20260830192713 | 20 | 223 | 0.0 | 0.0 | 0.00 | 0.00 | 0.00 | 67 | 1014.3 |
| 20260830192216 | 20 | 223 | 0.0 | 0.0 | 0.00 | 0.00 | 0.00 | 66 | 1014.3 |
| 20260830191721 | 20 | 224 | 0.0 | 0.0 | 0.00 | 0.00 | 0.00 | 66 | 1014.3 |
| 20260830191210 | 20 | 360 | 0.0 | 0.0 | 0.00 | 0.00 | 0.00 | 65 | 1014.4 |
| 20260830190716 | 20 | 223 | 0.0 | 0.0 | 0.00 | 0.00 | 0.00 | 64 | 1014.4 |
| 20260830190221 | 21 | 224 | 0.0 | 0.0 | 0.00 | 0.00 | 0.00 | 64 | 1014.4 |
| 20260830185722 | 21 | 224 | 0.0 | 0.0 | 0.00 | 0.00 | 0.00 | 64 | 1014.4 |
| 20260830185225 | 21 | 224 | 0.0 | 0.0 | 0.00 | 0.00 | 0.00 | 63 | 1014.4 |
| 20260830184712 | 21 | 223 | 0.0 | 0.0 | 0.00 | 0.00 | 0.00 | 63 | 1014.4 |
| 20260830184220 | 21 | 224 | 0.0 | 0.0 | 0.00 | 0.00 | 0.00 | 62 | 1014.0 |
| 20260830183720 | 22 | 360 | 0.0 | 0.0 | 0.00 | 0.00 | 0.00 | 62 | 1014.0 |
| 20260830183221 | 22 | 224 | 0.0 | 0.0 | 0.00 | 0.00 | 0.00 | 61 | 1014.0 |
| 20260830182713 | 22 | 224 | 0.0 | 0.0 | 0.00 | 0.00 | 0.00 | 60 | 1013.8 |
| 20260830182219 | 22 | 224 | 0.0 | 0.0 | 0.00 | 0.00 | 0.00 | 60 | 1013.8 |
| 20260830181724 | 22 | 224 | 0.0 | 0.0 | 0.00 | 0.00 | 0.00 | 60 | 1013.8 |
| 20260830181217 | 22 | 224 | 0.0 | 0.0 | 0.00 | 0.00 | 0.00 | 59 | 1014.0 |
| 20260830180711 | 22 | 224 | 0.0 | 0.0 | 0.00 | 0.00 | 0.00 | 59 | 1014.0 |
| 20260830180206 | 22 | 360 | 0.0 | 0.0 | 0.00 | 0.00 | 0.00 | 58 | 1014.0 |
| 20260830175717 | 23 | 224 | 0.0 | 0.0 | 0.00 | 0.00 | 0.00 | 58 | 1014.0 |
| 20260830175223 | 23 | 225 | 0.0 | 0.0 | 0.00 | 0.00 | 0.00 | 57 | 1014.0 |
| 20260830174722 | 23 | 225 | 0.0 | 0.0 | 0.00 | 0.00 | 0.00 | 57 | 1014.0 |
| 20260830174220 | 23 | 225 | 0.0 | 0.0 | 0.00 | 0.00 | 0.00 | 57 | 1014.0 |
| 20260830173728 | 23 | 226 | 0.0 | 0.0 | 0.00 | 0.00 | 0.00 | 57 | 1014.0 |
| 20260830173211 | 23 | 217 | 0.0 | 0.0 | 0.00 | 0.00 | 0.00 | 56 | 1014.0 |
| 20260830172717 | 23 | 218 | 0.0 | 0.0 | 0.00 | 0.00 | 0.00 | 55 | 1013.8 |
| 20260830172222 | 23 | 207 | 0.0 | 0.0 | 0.00 | 0.00 | 0.00 | 55 | 1013.8 |
| 20260830171710 | 23 | 216 | 0.0 | 0.0 | 0.00 | 0.00 | 0.00 | 54 | 1013.8 |
| 20260830171215 | 23 | 272 | 1.6 | 0.0 | 0.00 | 0.00 | 0.00 | 54 | 1014.0 |
| 20260830170716 | 23 | 360 | 1.6 | 0.0 | 0.00 | 0.00 | 0.00 | 53 | 1014.0 |
| 20260830170222 | 23 | 269 | 0.0 | 0.0 | 0.00 | 0.00 | 0.00 | 53 | 1014.0 |
| 20260830165724 | 24 | 249 | 0.0 | 0.0 | 0.00 | 0.00 | 0.00 | 54 | 1014.0 |
| 20260830165226 | 24 | 360 | 1.6 | 0.0 | 0.00 | 0.00 | 0.00 | 54 | 1014.0 |
| 20260830164715 | 24 | 360 | 3.2 | 0.0 | 0.00 | 0.00 | 0.00 | 54 | 1014.0 |
| 20260830164214 | 24 | 269 | 3.2 | 0.0 | 0.00 | 0.00 | 0.00 | 53 | 1014.0 |
| 20260830163716 | 24 | 273 | 3.2 | 0.0 | 0.00 | 0.00 | 0.00 | 53 | 1014.0 |
| 20260830163224 | 24 | 360 | 3.2 | 0.0 | 0.00 | 0.00 | 0.00 | 53 | 1014.0 |
| 20260830162712 | 24 | 187 | 3.2 | 0.0 | 0.00 | 0.00 | 0.00 | 53 | 1014.0 |
| 20260830162214 | 24 | 236 | 3.2 | 0.0 | 0.00 | 0.00 | 0.00 | 53 | 1014.0 |
| 20260830161722 | 24 | 246 | 3.2 | 0.0 | 0.00 | 0.00 | 0.00 | 53 | 1014.0 |
| 20260830161211 | 25 | 245 | 3.2 | 0.0 | 0.00 | 0.00 | 0.00 | 51 | 1014.0 |
| 20260830160712 | 25 | 275 | 1.6 | 0.0 | 0.00 | 0.00 | 0.00 | 52 | 1014.0 |
| 20260830160221 | 25 | 169 | 4.8 | 0.0 | 0.00 | 0.00 | 0.00 | 51 | 1014.0 |
| 20260830155713 | 25 | 360 | 3.2 | 0.0 | 0.00 | 0.00 | 0.00 | 51 | 1014.1 |
| 20260830155216 | 25 | 192 | 3.2 | 0.0 | 0.00 | 0.00 | 0.00 | 51 | 1014.1 |
| 20260830154722 | 25 | 211 | 3.2 | 0.0 | 0.00 | 0.00 | 0.00 | 51 | 1014.1 |
| 20260830154207 | 25 | 360 | 1.6 | 0.0 | 0.00 | 0.00 | 0.00 | 51 | 1014.3 |
| 20260830153716 | 25 | 236 | 1.6 | 0.0 | 0.00 | 0.00 | 0.00 | 51 | 1014.3 |
| 20260830153221 | 25 | 360 | 3.2 | 0.0 | 0.00 | 0.00 | 0.00 | 51 | 1014.3 |
| 20260830152723 | 25 | 360 | 4.8 | 0.0 | 0.00 | 0.00 | 0.00 | 52 | 1014.0 |
| 20260830152213 | 25 | 226 | 4.8 | 0.0 | 0.00 | 0.00 | 0.00 | 53 | 1014.0 |
| 20260830151722 | 25 | 360 | 6.4 | 0.0 | 0.00 | 0.00 | 0.00 | 51 | 1014.0 |
| 20260830151224 | 25 | 270 | 8.0 | 0.0 | 0.00 | 0.00 | 0.00 | 53 | 1014.0 |
| 20260830150711 | 25 | 360 | 8.0 | 0.0 | 0.00 | 0.00 | 0.00 | 54 | 1014.0 |
| 20260830150220 | 25 | 269 | 9.7 | 0.0 | 0.00 | 0.00 | 0.00 | 53 | 1014.0 |
| 20260830145720 | 25 | 360 | 8.0 | 0.0 | 0.00 | 0.00 | 0.00 | 52 | 1013.9 |
| 20260830145214 | 25 | 269 | 8.0 | 0.0 | 0.00 | 0.00 | 0.00 | 53 | 1013.9 |
| 20260830144724 | 25 | 281 | 8.0 | 0.0 | 0.00 | 0.00 | 0.00 | 52 | 1013.9 |
| 20260830144219 | 25 | 360 | 3.2 | 0.0 | 0.00 | 0.00 | 0.00 | 52 | 1013.9 |
| 20260830143712 | 26 | 360 | 3.2 | 0.0 | 0.00 | 0.00 | 0.00 | 51 | 1013.9 |
| 20260830143227 | 26 | 258 | 4.8 | 0.0 | 0.00 | 0.00 | 0.00 | 51 | 1013.9 |
| 20260830142729 | 26 | 360 | 3.2 | 0.0 | 0.00 | 0.00 | 0.00 | 51 | 1013.9 |
| 20260830142215 | 26 | 248 | 3.2 | 0.0 | 0.00 | 0.00 | 0.00 | 51 | 1013.9 |
| 20260830141713 | 26 | 298 | 4.8 | 0.0 | 0.00 | 0.00 | 0.00 | 51 | 1013.9 |
| 20260830141216 | 25 | 168 | 4.8 | 0.0 | 0.00 | 0.00 | 0.00 | 53 | 1013.9 |
| 20260830140716 | 25 | 275 | 3.2 | 0.0 | 0.00 | 0.00 | 0.00 | 53 | 1013.9 |
| 20260830140219 | 26 | 294 | 3.2 | 0.0 | 0.00 | 0.00 | 0.00 | 53 | 1013.9 |
| 20260830135710 | 26 | 344 | 6.4 | 0.0 | 0.00 | 0.00 | 0.00 | 52 | 1014.0 |
| 20260830135219 | 26 | 205 | 8.0 | 0.0 | 0.00 | 0.00 | 0.00 | 52 | 1014.0 |
| 20260830134721 | 25 | 323 | 4.8 | 0.0 | 0.00 | 0.00 | 0.00 | 51 | 1014.0 |
| 20260830134226 | 25 | 360 | 6.4 | 0.0 | 0.00 | 0.00 | 0.00 | 52 | 1014.1 |
| 20260830133713 | 25 | 292 | 4.8 | 0.0 | 0.00 | 0.00 | 0.00 | 52 | 1014.1 |
| 20260830133228 | 25 | 284 | 3.2 | 0.0 | 0.00 | 0.00 | 0.00 | 52 | 1014.1 |
| 20260830132729 | 26 | 294 | 6.4 | 0.0 | 0.00 | 0.00 | 0.00 | 50 | 1014.4 |
| 20260830132214 | 26 | 360 | 9.7 | 0.0 | 0.00 | 0.00 | 0.00 | 51 | 1014.4 |
| 20260830131719 | 26 | 279 | 8.0 | 0.0 | 0.00 | 0.00 | 0.00 | 50 | 1014.4 |
| 20260830131222 | 26 | 360 | 3.2 | 0.0 | 0.00 | 0.00 | 0.00 | 48 | 1014.4 |
| 20260830130727 | 26 | 313 | 6.4 | 0.0 | 0.00 | 0.00 | 0.00 | 53 | 1014.4 |
| 20260830130207 | 26 | 286 | 8.0 | 0.0 | 0.00 | 0.00 | 0.00 | 52 | 1014.4 |
| 20260830125707 | 26 | 285 | 8.0 | 0.0 | 0.00 | 0.00 | 0.00 | 53 | 1014.5 |
| 20260830125214 | 25 | 269 | 9.7 | 0.0 | 0.00 | 0.00 | 0.00 | 53 | 1014.5 |
| 20260830124707 | 25 | 277 | 8.0 | 0.0 | 0.00 | 0.00 | 0.00 | 50 | 1014.5 |
| 20260830124222 | 25 | 274 | 8.0 | 0.0 | 0.00 | 0.00 | 0.00 | 52 | 1014.5 |
| 20260830123715 | 25 | 360 | 11.3 | 0.0 | 0.00 | 0.00 | 0.00 | 51 | 1014.5 |
| 20260830123229 | 25 | 360 | 8.0 | 0.0 | 0.00 | 0.00 | 0.00 | 51 | 1014.5 |
| 20260830122711 | 25 | 360 | 9.7 | 0.0 | 0.00 | 0.00 | 0.00 | 51 | 1014.6 |
| 20260830122211 | 25 | 308 | 9.7 | 0.0 | 0.00 | 0.00 | 0.00 | 52 | 1014.6 |
| 20260830121707 | 25 | 360 | 8.0 | 0.0 | 0.00 | 0.00 | 0.00 | 54 | 1014.6 |
| 20260830121229 | 24 | 302 | 9.7 | 0.0 | 0.00 | 0.00 | 0.00 | 53 | 1014.8 |
| 20260830120711 | 25 | 276 | 6.4 | 0.0 | 0.00 | 0.00 | 0.00 | 52 | 1014.8 |
| 20260830120210 | 25 | 360 | 3.2 | 0.0 | 0.00 | 0.00 | 0.00 | 53 | 1014.8 |
| 20260830115721 | 26 | 290 | 4.8 | 0.0 | 0.00 | 0.00 | 0.00 | 51 | 1014.8 |
| 20260830115228 | 25 | 275 | 6.4 | 0.0 | 0.00 | 0.00 | 0.00 | 55 | 1014.8 |
| 20260830114726 | 25 | 274 | 4.8 | 0.0 | 0.00 | 0.00 | 0.00 | 50 | 1014.8 |
| 20260830114209 | 25 | 298 | 3.2 | 0.0 | 0.00 | 0.00 | 0.00 | 51 | 1014.8 |
| 20260830113718 | 25 | 360 | 4.8 | 0.0 | 0.00 | 0.00 | 0.00 | 51 | 1014.8 |
| 20260830113224 | 25 | 360 | 8.0 | 0.0 | 0.00 | 0.00 | 0.00 | 50 | 1014.8 |
| 20260830112724 | 25 | 255 | 9.7 | 0.0 | 0.00 | 0.00 | 0.00 | 53 | 1015.0 |